TimePDT,TemperatureF,Dew PointF,Humidity,Sea Level PressureIn,VisibilityMPH,Wind Direction,Wind SpeedMPH,Gust SpeedMPH,PrecipitationIn,Events,Conditions,WindDirDegrees,DateUTC
12:53 AM,46.0,39.0,76,30.27,10.0,SSW,3.5,-,N/A,,Clear,200,2013-05-11 07:53:00
1:53 AM,44.1,37.9,79,30.26,10.0,South,4.6,-,N/A,,Clear,180,2013-05-11 08:53:00
2:53 AM,44.1,37.9,79,30.26,10.0,Calm,Calm,-,N/A,,Clear,0,2013-05-11 09:53:00
3:53 AM,42.1,36.0,79,30.26,10.0,Calm,Calm,-,N/A,,Clear,0,2013-05-11 10:53:00
4:53 AM,41.0,36.0,82,30.26,10.0,Calm,Calm,-,N/A,,Clear,0,2013-05-11 11:53:00
5:53 AM,39.9,35.1,83,30.28,10.0,Calm,Calm,-,N/A,,Clear,0,2013-05-11 12:53:00
6:53 AM,39.9,36.0,86,30.31,10.0,Calm,Calm,-,N/A,,Clear,0,2013-05-11 13:53:00
7:53 AM,48.9,41.0,74,30.29,10.0,Calm,Calm,-,N/A,,Clear,0,2013-05-11 14:53:00
8:53 AM,59.0,41.0,51,30.27,10.0,NE,4.6,-,N/A,,Clear,40,2013-05-11 15:53:00
9:53 AM,63.0,44.1,50,30.26,10.0,NE,4.6,-,N/A,,Clear,40,2013-05-11 16:53:00
10:53 AM,66.9,44.1,44,30.26,10.0,Variable,5.8,-,N/A,,Clear,0,2013-05-11 17:53:00
11:53 AM,69.1,42.1,38,30.25,10.0,NNE,5.8,-,N/A,,Clear,20,2013-05-11 18:53:00
12:53 PM,71.1,39.9,32,30.24,10.0,Variable,5.8,-,N/A,,Clear,0,2013-05-11 19:53:00
1:53 PM,73.0,37.0,27,30.23,10.0,North,5.8,-,N/A,,Clear,10,2013-05-11 20:53:00
2:53 PM,75.0,35.1,23,30.20,10.0,Variable,4.6,-,N/A,,Clear,0,2013-05-11 21:53:00
3:53 PM,75.9,30.9,19,30.20,10.0,NNE,10.4,-,N/A,,Scattered Clouds,20,2013-05-11 22:53:00
4:53 PM,73.9,37.0,26,30.20,10.0,Calm,Calm,-,N/A,,Overcast,0,2013-05-11 23:53:00
5:53 PM,72.0,35.1,26,30.22,10.0,SSW,9.2,16.1,N/A,,Overcast,200,2013-05-12 00:53:00
6:53 PM,69.1,33.1,26,30.23,10.0,Variable,5.8,-,N/A,,Clear,0,2013-05-12 01:53:00
7:53 PM,61.0,39.9,46,30.24,10.0,Calm,Calm,-,N/A,,Clear,0,2013-05-12 02:53:00
8:53 PM,57.9,42.1,56,30.24,9.0,Calm,Calm,-,N/A,,Clear,0,2013-05-12 03:53:00
9:53 PM,55.0,41.0,59,30.25,10.0,Calm,Calm,-,N/A,,Clear,0,2013-05-12 04:53:00
10:53 PM,52.0,39.9,63,30.25,10.0,Calm,Calm,-,N/A,,Clear,0,2013-05-12 05:53:00
11:53 PM,50.0,37.9,63,30.26,10.0,Calm,Calm,-,N/A,,Clear,0,2013-05-12 06:53:00